Location: Schommer Observatory
(40.5200°N, 74.4500°W)
Time: 14:49:37
(UTC-04:00)

Vanguard 3 - Visible Passes

Search period start: 17 October 2017 00:00
Search period end: 27 October 2017 00:00
Orbit: 510 x 3263 km, 33.3° (Epoch: 17 October)

Date Brightness Start Highest point End Pass type
(mag) Time Alt. Az. Time Alt. Az. Time Alt. Az.
17 Oct 10.8 03:10:04 15° SSE 03:11:52 15° SSE 03:17:39 10° ESE visible
17 Oct 9.7 05:14:42 10° SW 05:25:22 32° SSE 05:32:10 10° ESE visible
18 Oct 10.2 04:05:33 21° S 04:10:49 26° SSE 04:18:29 10° ESE visible
18 Oct 9.1 06:13:00 10° SW 06:23:58 43° S 06:30:21 10° E visible
19 Oct 10.6 02:56:19 20° SSE 02:56:19 20° SSE 03:03:45 10° ESE visible
19 Oct 9.6 05:00:56 19° SW 05:09:39 38° SSE 05:17:16 10° E visible
20 Oct 10.0 03:51:37 29° S 03:54:54 32° SSE 04:03:41 10° E visible
20 Oct 9.1 05:56:14 11° WSW 06:08:19 49° S 06:15:21 10° E visible
21 Oct 10.5 02:42:14 24° SE 02:42:14 24° SE 02:49:13 10° ESE visible
21 Oct 9.5 04:46:50 27° SW 04:53:49 44° SSE 05:02:16 10° E visible
22 Oct 11.1 01:32:47 10° ESE 01:32:47 10° ESE 01:33:04 10° ESE visible
22 Oct 9.9 03:37:23 37° S 03:38:51 38° SSE 03:48:41 10° E visible
22 Oct 9.1 05:41:59 17° WSW 05:52:34 54° S 06:00:18 10° E visible
23 Oct 10.5 02:27:52 26° SE 02:27:52 26° SE 02:34:20 10° E visible
23 Oct 9.5 04:32:27 37° SSW 04:37:51 50° SSE 04:47:08 10° E visible
23 Oct 8.9 06:38:49 10° WSW 06:51:09 56° S 06:58:02 10° ESE visible
24 Oct 11.1 01:18:18 11° ESE 01:18:18 11° ESE 01:18:37 10° ESE visible
24 Oct 9.9 03:22:53 43° SSE 03:22:53 43° SSE 03:33:30 10° E visible
24 Oct 9.1 05:27:28 24° WSW 05:36:45 58° S 05:45:10 10° E visible
25 Oct 10.5 02:13:16 27° ESE 02:13:16 27° ESE 02:19:11 10° E visible
25 Oct 9.5 04:17:51 46° SSW 04:21:47 55° SSE 04:31:55 10° E visible
25 Oct 9.0 06:22:25 11° W 06:35:24 58° S 06:42:54 10° ESE visible
26 Oct 11.2 01:03:36 10° E 01:03:36 10° E 01:03:41 10° E visible
26 Oct 9.9 03:08:11 47° SE 03:08:11 47° SE 03:18:12 10° E visible
26 Oct 9.2 05:12:45 31° WSW 05:20:48 61° S 05:29:58 10° ESE visible
